• MPC Preparation (Info)

  • MPEC 2014-J24 : 2014 HQ178

    The following Minor Planet Electronic Circular may be linked-to from your own Web pages, but must not otherwise be redistributed electronically.

    A form allowing access to any MPEC is at the bottom of this page.


    Read MPEC 2014-J23 Read MPEC 2014-J25


    M.P.E.C. 2014-J24                                Issued 2014 May 3, 14:41 UT
    
         The Minor Planet Electronic Circulars contain information on unusual
             minor planets and routine data on comets.  They are published
       on behalf of Commission 20 of the International Astronomical Union by the
              Minor Planet Center, Smithsonian Astrophysical Observatory,
                              Cambridge, MA 02138, U.S.A.
    
                 Prepared using the Tamkin Foundation Computer Network
    
                                  MPC@CFA.HARVARD.EDU
                URL https://www.minorplanetcenter.net/    ISSN 1523-6714
    
                                      2014 HQ178
    
    Observations:
         K14HH8Q* C2014 04 29.30112 12 11 41.714-00 57 44.14         21.6 wLEJ024F51
         K14HH8Q  C2014 04 29.31308 12 11 42.152-00 58 03.08         21.7 wLEJ024F51
         K14HH8Q  C2014 04 29.32504 12 11 42.581-00 58 22.57         21.7 wLEJ024F51
         K14HH8Q  C2014 04 29.33703 12 11 42.986-00 58 41.69         21.8 wLEJ024F51
         K14HH8Q KC2014 04 30.17638 12 12 23.74 -01 20 51.4          21.8 RoEJ024291
         K14HH8Q KC2014 04 30.18077 12 12 23.88 -01 20 58.6          21.3 RoEJ024291
         K14HH8Q KC2014 04 30.18517 12 12 24.04 -01 21 05.7          21.2 RoEJ024291
         K14HH8Q  C2014 05 02.30655312 14 09.85 -02 14 48.5          21.6 RtEJ024H01
         K14HH8Q  C2014 05 02.31116012 14 10.08 -02 14 55.2          21.8 RtEJ024H01
         K14HH8Q  C2014 05 02.32830712 14 10.86 -02 15 20.3          21.6 RtEJ024H01
         K14HH8Q  C2014 05 02.33221912 14 11.01 -02 15 26.2          21.4 RtEJ024H01
         K14HH8Q  C2014 05 03.15329912 14 56.10 -02 35 27.0          21.1 RtEJ024H01
         K14HH8Q  C2014 05 03.15976112 14 56.38 -02 35 36.1          21.7 RtEJ024H01
         K14HH8Q  C2014 05 03.17015712 14 56.85 -02 35 51.3          21.5 RtEJ024H01
         K14HH8Q  C2014 05 03.17813912 14 57.19 -02 36 02.5          21.5 RtEJ024H01
    
    Observer details:
    291 LPL/Spacewatch II.  Observer R. A. Mastaler.  1.8-m f/2.7 reflector + CCD.
    F51 Pan-STARRS 1, Haleakala.  Observers N. Primak, A. Schultz, T. Goggia,
        M. Willman.  Measurer PS1 Science Consortium.  1.8-m Ritchey-Chretien
        + CCD.
    H01 Magdalena Ridge Observatory, Socorro.  Observers W. H. Ryan, E. V. Ryan.
        Measurer W. H. Ryan.  2.4-m f/8.9 reflector + CCD.
    
    Orbital elements:
    2014 HQ178                                               Earth MOID = 0.1088 AU
    Epoch 2014 May 23.0 TT = JDT 2456800.5                  MPC
    M  61.30426              (2000.0)            P               Q
    n   0.56978312     Peri.  102.09219     -0.68887664     -0.72288141
    a   1.4409967      Node    31.66287     +0.61883932     -0.62511266
    e   0.2792887      Incl.    5.87962     +0.37747432     -0.29440895
    P   1.73           H   22.6           G   0.15           U   7
    Residuals in seconds of arc
    140429 F51  0.2-  0.0     140430 291  0.1+  0.1+    140502 H01  0.3-  0.1-
    140429 F51  0.0   0.2+    140430 291  0.0   0.2-    140503 H01  0.0   0.2-
    140429 F51  0.1+  0.2-    140502 H01  0.4-  0.2-    140503 H01  0.0   0.1+
    140429 F51  0.2-  0.2-    140502 H01  0.0   0.1-    140503 H01  0.2+  0.1-
    140430 291  0.5+  0.4+    140502 H01  0.1+  0.1+    140503 H01  0.0   0.3+
    
    Ephemeris:
    2014 HQ178               a,e,i = 1.44, 0.28, 6                   q = 1.0385
    Date    TT    R. A. (2000) Decl.     Delta      r     Elong.  Phase     V
    2014 04 03    12 01 06.0 +16 30 12   0.1641  1.1511   155.5    21.1    20.0
    ...
    2014 04 18    12 04 34.8 +04 56 15   0.2259  1.2065   151.0    23.8    20.9
    ...
    2014 04 26    12 09 14.2 +00 34 24   0.2679  1.2382   146.4    26.7    21.4
    ...
    2014 05 02    12 13 54.9 -02 06 55   0.3034  1.2626   142.7    28.9    21.8
    2014 05 03    12 14 47.5 -02 31 27   0.3097  1.2667   142.1    29.3    21.8
    2014 05 04    12 15 41.6 -02 55 21   0.3160  1.2708   141.5    29.6    21.9
    ...
    2014 05 10    12 21 37.9 -05 07 27   0.3557  1.2956   137.9    31.5    22.3
    ...
    2014 05 18    12 30 47.2 -07 38 46   0.4134  1.3289   133.2    33.7    22.7
    ...
    2014 06 02    12 51 04.1 -11 30 44   0.5354  1.3911   124.8    36.8    23.5
    
    A. U. Tomatic                (C) Copyright 2014 MPC           M.P.E.C. 2014-J24
    

    Read MPEC 2014-J23 Read MPEC 2014-J25


    MPEC number:

    Enter an MPEC number in one of the following forms:

    • 1997-B01 (the full form)
    • J97B01 (the packed version of the full form)
    • B01 (the abbreviated form)